sat.trackr.live / text

‹ back to catalog

STARLINK-2757

NORAD 48604 · 2021-041BD

PAYLOAD ACTIVE UNKNOWN

§ Identity

Operator
Country
US
Launch date
2021-05-15
Launch site
AFETR
Launch vehicle
Mass (kg)
RCS (m²)

Purposes: comms

External: N2YO · Heavens-Above · Gunter

§ Orbital elements

Epoch: 2026-09-19T17:42:59.480352Z

Period
94.01 min
Inclination
53.1613°
Eccentricity
0.0001247
Mean motion
15.31703893 rev/d
Perigee alt
469.9 km
Apogee alt
471.6 km
Semi-major
6,848.9 km
B*
3.1581e-5
RAAN
325.8581°
Arg perigee
113.6440°
Mean anomaly
246.4692°
Rev number
29,595

§ Raw data

STARLINK-27571 48604U 21041BD  26262.73818843  .00000615  00000+0  31581-4 0  99932 48604  53.1613 325.8581 0001247 113.6440 246.4692 15.31703893295951

JSON: /api/v1/satellites/48604 · /tle

For live sub-satellite position, see the globe view (requires WebGL).

§ Visibility from observer

Set your observer location to see the next 7 days of passes ≥ 10°. The values pass through the URL so the page stays shareable.

No JS? Fill the form by hand. The geolocation button needs JavaScript.